Precipitable_Water
0.42 0.32 0.27 0.29 0.32 0.31 0.29 0.26 0.23 0.26 0.32 0.29 0.27 0.26 0.27 0.33 0.40 0.42 0.44 0.45 0.45 0.46 0.51 0.54 0.55 0.55 0.54 0.55 0.55 0.55 0.55 0.59 0.64 0.60 0.54 0.50 0.45 0.45 0.44 0.47 0.57 0.71 0.86 1.22
0.41 0.33 0.39 0.39 0.36 0.33 0.31 0.27 0.28 0.34 0.37 0.35 0.32 0.30 0.35 0.38 0.41 0.43 0.42 0.43 0.43 0.45 0.48 0.51 0.53 0.56 0.57 0.58 0.60 0.61 0.61 0.59 0.65 0.67 0.62 0.57 0.53 0.50 0.50 0.50 0.54 0.62 0.71 0.91
0.37 0.40 0.40 0.34 0.31 0.29 0.30 0.28 0.29 0.29 0.35 0.37 0.32 0.26 0.32 0.38 0.40 0.41 0.43 0.44 0.45 0.46 0.47 0.50 0.53 0.56 0.59 0.60 0.65 0.69 0.71 0.68 0.68 0.76 0.72 0.65 0.61 0.56 0.53 0.55 0.58 0.67 0.72 0.74
0.38 0.39 0.34 0.31 0.28 0.30 0.26 0.35 0.32 0.30 0.26 0.17 0.28 0.13 0.23 0.28 0.29 0.34 0.38 0.41 0.44 0.47 0.51 0.53 0.55 0.57 0.61 0.67 0.74 0.78 0.81 0.78 0.79 0.86 0.81 0.71 0.63 0.54 0.54 0.55 0.62 0.68 0.71 0.69
0.34 0.32 0.32 0.31 0.32 0.34 0.30 0.36 0.30 0.28 0.24 0.21 0.19 0.16 0.17 0.28 0.25 0.31 0.38 0.42 0.48 0.52 0.54 0.53 0.56 0.62 0.67 0.73 0.77 0.82 0.82 0.81 0.81 0.88 0.93 0.81 0.72 0.70 0.68 0.64 0.65 0.70 0.72 0.72
0.35 0.41 0.37 0.34 0.35 0.35 0.36 0.30 0.29 0.28 0.24 0.13 0.19 0.19 0.15 0.22 0.29 0.36 0.42 0.47 0.53 0.56 0.57 0.59 0.62 0.68 0.70 0.75 0.78 0.83 0.84 0.85 0.87 0.94 0.97 0.89 0.80 0.76 0.73 0.69 0.66 0.72 0.72 0.75
0.32 0.33 0.38 0.38 0.30 0.34 0.31 0.23 0.14 0.13 0.14 0.13 0.27 0.23 0.21 0.34 0.41 0.44 0.46 0.52 0.57 0.58 0.58 0.56 0.59 0.66 0.71 0.72 0.78 0.85 0.87 0.84 0.90 0.96 0.98 0.93 0.85 0.79 0.73 0.72 0.70 0.74 0.71 0.67
0.22 0.18 0.31 0.37 0.34 0.30 0.30 0.28 0.18 0.11 0.13 0.17 0.30 0.21 0.27 0.45 0.52 0.53 0.56 0.57 0.60 0.56 0.55 0.51 0.48 0.62 0.71 0.74 0.77 0.85 0.88 0.89 0.89 0.94 0.95 0.97 0.85 0.77 0.74 0.75 0.78 0.79 0.79 0.78
0.21 0.23 0.39 0.41 0.44 0.42 0.36 0.30 0.41 0.29 0.30 0.25 0.27 0.33 0.43 0.50 0.50 0.51 0.50 0.53 0.49 0.48 0.45 0.43 0.42 0.50 0.69 0.74 0.77 0.81 0.86 0.91 0.90 0.88 0.89 0.94 0.90 0.87 0.83 0.84 0.85 0.85 0.84 0.80
0.34 0.26 0.39 0.44 0.49 0.50 0.46 0.51 0.33 0.36 0.23 0.22 0.27 0.30 0.32 0.42 0.41 0.42 0.46 0.47 0.45 0.46 0.42 0.41 0.40 0.42 0.58 0.73 0.80 0.82 0.85 0.84 0.84 0.85 0.87 0.89 0.90 0.92 0.89 0.88 0.84 0.87 0.87 0.84
0.45 0.39 0.39 0.47 0.42 0.41 0.44 0.41 0.43 0.42 0.37 0.25 0.23 0.25 0.45 0.40 0.39 0.38 0.45 0.47 0.45 0.43 0.42 0.40 0.39 0.40 0.45 0.64 0.76 0.81 0.83 0.81 0.79 0.76 0.75 0.75 0.78 0.81 0.83 0.83 0.85 0.84 0.88 0.86
0.46 0.38 0.32 0.37 0.50 0.54 0.50 0.42 0.42 0.32 0.30 0.33 0.30 0.24 0.41 0.43 0.43 0.44 0.45 0.47 0.48 0.46 0.43 0.42 0.41 0.39 0.38 0.43 0.62 0.74 0.78 0.81 0.80 0.80 0.76 0.75 0.76 0.79 0.81 0.79 0.83 0.84 0.84 0.84
0.38 0.30 0.22 0.28 0.37 0.44 0.38 0.40 0.41 0.40 0.39 0.29 0.23 0.22 0.47 0.44 0.45 0.47 0.47 0.48 0.48 0.46 0.43 0.42 0.42 0.39 0.36 0.36 0.40 0.55 0.71 0.76 0.81 0.81 0.79 0.78 0.77 0.76 0.76 0.76 0.76 0.78 0.77 0.77
0.34 0.26 0.21 0.14 0.18 0.27 0.25 0.28 0.32 0.30 0.22 0.22 0.21 0.23 0.31 0.36 0.40 0.42 0.44 0.49 0.48 0.47 0.43 0.42 0.42 0.42 0.39 0.36 0.35 0.36 0.43 0.52 0.65 0.74 0.77 0.78 0.78 0.78 0.76 0.75 0.71 0.72 0.74 0.74
0.28 0.15 0.19 0.19 0.19 0.19 0.18 0.18 0.21 0.20 0.19 0.16 0.17 0.19 0.23 0.27 0.31 0.37 0.42 0.46 0.45 0.46 0.43 0.42 0.42 0.43 0.42 0.37 0.35 0.35 0.35 0.35 0.39 0.43 0.52 0.58 0.62 0.65 0.74 0.76 0.74 0.70 0.64 0.64
0.28 0.16 0.19 0.13 0.16 0.18 0.15 0.16 0.17 0.18 0.20 0.19 0.18 0.15 0.24 0.27 0.36 0.37 0.40 0.41 0.40 0.45 0.44 0.42 0.44 0.44 0.43 0.41 0.37 0.35 0.34 0.33 0.31 0.28 0.29 0.31 0.32 0.37 0.42 0.46 0.50 0.52 0.58 0.59
0.23 0.20 0.16 0.09 0.15 0.14 0.09 0.11 0.13 0.14 0.16 0.16 0.14 0.14 0.23 0.23 0.30 0.34 0.37 0.40 0.40 0.43 0.46 0.44 0.44 0.45 0.45 0.44 0.42 0.37 0.35 0.35 0.32 0.29 0.26 0.24 0.23 0.25 0.29 0.33 0.36 0.33 0.33 0.34
0.23 0.23 0.22 0.15 0.16 0.07 0.11 0.20 0.18 0.15 0.15 0.17 0.18 0.19 0.23 0.25 0.28 0.34 0.40 0.40 0.41 0.45 0.48 0.47 0.48 0.48 0.48 0.48 0.45 0.40 0.37 0.35 0.33 0.29 0.26 0.22 0.20 0.20 0.22 0.25 0.25 0.23 0.26 0.26
0.29 0.25 0.18 0.14 0.14 0.14 0.15 0.18 0.16 0.15 0.13 0.19 0.17 0.20 0.25 0.30 0.29 0.27 0.39 0.43 0.45 0.48 0.51 0.51 0.53 0.53 0.52 0.50 0.48 0.43 0.37 0.35 0.33 0.30 0.26 0.22 0.21 0.20 0.18 0.17 0.17 0.18 0.18 0.18
0.31 0.32 0.24 0.20 0.13 0.09 0.12 0.20 0.24 0.23 0.11 0.20 0.21 0.21 0.22 0.23 0.16 0.19 0.33 0.38 0.44 0.51 0.54 0.53 0.54 0.55 0.54 0.53 0.51 0.45 0.39 0.35 0.33 0.31 0.28 0.24 0.22 0.20 0.19 0.18 0.17 0.17 0.17 0.17
0.21 0.24 0.19 0.19 0.17 0.16 0.20 0.23 0.27 0.13 0.11 0.23 0.24 0.23 0.24 0.21 0.25 0.30 0.33 0.35 0.40 0.43 0.47 0.51 0.52 0.53 0.54 0.55 0.51 0.44 0.40 0.37 0.37 0.34 0.30 0.25 0.21 0.19 0.20 0.19 0.19 0.18 0.17 0.18
0.18 0.17 0.18 0.21 0.17 0.12 0.25 0.25 0.17 0.19 0.25 0.27 0.27 0.28 0.27 0.28 0.30 0.30 0.30 0.31 0.36 0.39 0.42 0.46 0.47 0.50 0.53 0.53 0.49 0.44 0.40 0.41 0.39 0.35 0.29 0.25 0.22 0.19 0.18 0.18 0.20 0.20 0.19 0.19
0.20 0.21 0.19 0.22 0.18 0.23 0.27 0.25 0.29 0.30 0.28 0.29 0.29 0.31 0.33 0.30 0.29 0.29 0.28 0.29 0.32 0.39 0.42 0.46 0.46 0.48 0.51 0.51 0.48 0.43 0.42 0.42 0.39 0.35 0.30 0.26 0.23 0.21 0.20 0.18 0.18 0.19 0.19 0.19
0.36 0.34 0.27 0.25 0.24 0.26 0.29 0.30 0.32 0.34 0.33 0.34 0.33 0.32 0.33 0.32 0.33 0.30 0.29 0.28 0.32 0.40 0.44 0.47 0.46 0.46 0.47 0.48 0.46 0.45 0.43 0.42 0.38 0.34 0.30 0.27 0.25 0.22 0.21 0.21 0.20 0.19 0.19 0.19
0.41 0.43 0.36 0.37 0.35 0.33 0.33 0.33 0.33 0.35 0.35 0.35 0.36 0.35 0.34 0.32 0.32 0.33 0.29 0.29 0.34 0.41 0.46 0.48 0.46 0.46 0.46 0.46 0.46 0.45 0.44 0.42 0.37 0.34 0.30 0.28 0.26 0.24 0.23 0.21 0.21 0.21 0.22 0.21
0.46 0.42 0.38 0.36 0.41 0.37 0.35 0.37 0.38 0.36 0.35 0.36 0.35 0.35 0.36 0.33 0.30 0.29 0.27 0.28 0.35 0.41 0.47 0.48 0.48 0.47 0.46 0.46 0.45 0.45 0.45 0.42 0.37 0.33 0.30 0.29 0.27 0.25 0.24 0.22 0.21 0.23 0.23 0.24
Wind_Speed
12 12 12 12 12 12 12 12 14 15 16 19 21 24 24 25 23 23 24 25 26 28 30 32 34 36 37 39 41 43 45 45 44 44 45 46 46 45 46 46 47 47 47 47
9 9 10 10 10 11 11 12 13 14 15 18 21 24 25 23 19 19 20 22 25 27 29 31 33 35 37 40 42 44 47 48 48 47 46 47 46 47 47 47 48 49 49 48
9 9 9 9 9 10 10 11 12 13 15 15 16 18 15 13 15 17 18 21 23 25 28 30 32 35 37 39 41 44 47 48 49 48 48 48 48 47 46 47 48 48 48 49
7 7 7 8 8 8 8 8 9 10 9 12 11 15 16 17 17 17 19 21 23 24 26 29 31 33 34 36 37 37 37 39 42 44 44 44 46 47 47 46 47 48 48 49
6 7 6 5 5 5 6 7 9 10 11 10 13 12 15 15 18 19 19 20 22 23 25 27 28 27 29 29 30 31 33 32 31 35 37 38 39 41 42 45 46 46 47 49
7 6 4 3 3 4 5 7 8 9 9 11 12 10 14 13 15 15 16 17 17 18 19 20 23 25 28 28 28 30 28 25 24 26 28 32 34 36 38 40 42 44 45 46
5 5 4 3 3 4 4 5 6 8 8 11 9 10 15 12 11 10 11 11 12 14 16 18 22 25 26 25 26 26 24 21 19 21 23 26 28 31 33 36 38 38 40 44
5 1 4 3 3 3 4 4 6 8 9 10 9 8 6 5 6 7 8 10 11 13 14 17 21 24 24 24 22 23 23 18 15 15 17 20 23 25 27 29 32 33 33 35
2 1 2 2 1 2 2 3 2 3 4 5 4 6 6 3 5 6 7 8 10 12 14 17 20 23 24 23 21 21 20 17 15 14 15 16 17 19 21 22 24 28 29 30
5 2 3 1 1 0 0 1 1 0 2 2 3 4 4 6 7 6 6 8 11 13 15 17 19 20 23 22 20 19 18 18 18 15 13 14 16 18 19 19 20 22 24 24
4 3 3 3 2 3 2 0 1 0 2 2 4 4 3 5 6 7 8 10 12 13 15 17 18 19 19 21 20 17 18 17 18 16 15 12 11 10 12 15 16 17 18 19
5 6 3 2 2 3 2 2 2 1 1 3 3 7 4 8 9 9 11 13 14 14 15 16 17 18 18 18 20 18 17 16 16 16 14 13 12 10 7 6 8 10 12 14
5 4 5 5 4 2 1 2 2 2 3 6 4 7 6 10 12 13 15 16 16 16 16 16 17 18 17 17 16 17 17 16 14 14 14 13 12 11 10 8 7 8 10 13
4 2 0 0 2 2 5 5 6 5 5 8 11 15 16 17 17 20 20 19 18 17 17 17 17 17 17 16 15 15 15 16 16 14 13 13 13 12 10 8 7 6 6 7
3 5 5 8 11 11 13 13 11 13 14 12 13 17 18 20 22 22 20 18 18 18 18 18 18 17 17 15 15 15 15 15 15 15 13 13 12 12 10 9 7 6 7 8
6 7 9 11 12 10 13 15 16 17 19 22 23 26 23 23 21 20 19 20 20 20 19 18 18 17 16 16 15 15 14 14 15 15 14 13 12 11 11 9 7 7 7 7
7 7 9 9 11 15 13 8 10 10 13 15 16 20 19 20 19 20 20 20 21 21 20 19 19 17 17 16 15 15 15 15 15 14 14 14 13 12 11 10 9 10 9 9
9 7 8 11 12 8 9 9 9 11 13 13 16 17 17 18 19 20 20 20 20 20 21 21 19 18 16 16 15 15 15 15 15 14 14 14 14 13 12 11 11 11 10 9
9 8 10 8 9 15 13 8 8 9 13 12 12 12 13 15 17 17 17 18 20 20 19 19 19 18 18 17 16 16 16 15 15 16 16 15 15 14 13 13 12 12 11 10
7 9 9 11 10 10 9 9 9 11 12 9 10 11 13 15 17 19 20 20 21 17 17 17 18 19 19 19 18 17 17 17 17 17 17 17 16 16 15 15 13 12 11 11
8 10 13 13 12 14 15 11 10 10 13 11 12 13 15 18 18 18 20 21 19 18 16 15 15 17 18 19 19 19 19 19 19 19 19 19 18 18 17 16 15 15 14 14
10 9 11 11 12 15 9 10 12 15 14 14 15 17 19 20 20 20 21 21 20 18 17 15 14 14 15 16 18 20 20 20 21 21 21 21 21 20 19 18 18 17 17 16
14 13 13 13 15 17 17 18 18 18 19 20 20 21 20 20 20 21 22 22 21 19 16 15 15 14 14 15 16 17 19 21 22 23 23 23 23 22 22 21 20 20 19 19
17 18 18 19 20 26 26 26 24 22 22 22 22 21 21 21 22 22 22 22 21 18 16 15 14 15 15 15 15 16 17 19 21 23 25 25 25 24 24 23 23 22 22 22
19 20 21 26 27 27 28 27 26 24 22 21 21 21 23 23 23 22 22 22 20 17 16 15 15 15 15 16 16 17 18 19 21 22 24 25 26 26 25 25 25 25 24 24
24 24 21 23 24 23 23 23 22 20 20 21 22 23 23 23 24 24 24 22 20 18 16 15 15 15 16 16 17 19 20 22 23 24 24 24 25 26 26 26 25 25 26 26
Wind_Direction
187 184 193 198 210 218 226 231 239 247 250 256 258 264 268 268 266 272 277 280 282 284 287 288 288 288 286 285 283 280 276 273 271 267 263 261 258 257 255 253 251 250 249 248
168 176 194 202 216 225 233 239 249 255 258 267 266 269 272 265 263 268 275 282 286 288 292 294 294 292 291 288 286 283 279 273 269 267 263 260 258 257 255 254 252 250 249 248
181 193 203 208 220 230 236 245 251 256 272 266 276 271 262 262 260 268 278 285 290 294 298 299 299 298 296 294 292 289 282 275 269 266 262 259 257 256 255 254 252 250 249 248
161 190 196 208 216 223 227 249 256 264 270 263 275 269 268 264 266 276 284 289 294 297 299 302 304 304 304 301 300 296 291 280 269 265 261 257 256 254 254 254 253 251 249 249
170 168 185 204 204 220 229 254 259 262 266 275 271 270 273 272 272 274 283 290 294 299 303 307 310 312 313 310 309 307 299 288 274 266 260 256 255 255 255 254 253 251 250 249
139 152 163 182 206 227 256 266 267 262 272 271 263 264 280 270 273 278 284 291 300 305 313 318 321 320 320 317 316 316 310 299 278 270 265 258 256 256 257 256 254 251 251 250
128 147 156 185 205 233 252 271 277 276 272 263 268 278 272 274 271 277 284 298 310 320 326 331 334 334 330 327 325 326 320 307 290 276 269 264 260 259 260 257 254 254 253 250
123 96 173 186 237 256 266 267 265 264 275 278 277 261 273 270 274 279 287 303 313 322 329 334 341 346 344 341 339 339 338 329 312 292 281 274 266 263 264 260 255 253 255 254
101 135 156 197 310 280 276 284 268 285 263 278 256 280 287 282 284 280 294 308 315 323 330 335 341 347 349 349 349 350 354 351 339 314 299 285 275 270 265 266 258 253 255 256
82 88 142 139 76 314 284 353 326 3 320 291 282 277 267 305 292 288 300 308 318 326 333 336 341 347 352 353 351 354 354 355 352 346 325 303 289 278 270 266 264 258 255 254
82 78 76 86 146 149 132 97 120 224 216 274 314 289 285 309 307 291 301 309 316 323 332 337 340 343 349 355 355 354 354 356 358 358 355 346 331 305 284 271 263 259 253 251
87 70 73 131 87 151 132 141 138 130 283 268 278 291 300 316 315 307 301 306 312 318 325 331 336 341 344 349 358 358 356 355 358 2 4 9 8 3 340 307 279 262 252 250
73 63 50 39 37 7 285 262 264 288 300 261 277 289 305 312 313 305 300 300 303 308 316 322 327 332 338 342 346 356 0 359 356 356 2 4 0 355 349 330 304 282 267 256
49 22 67 263 297 332 288 274 262 260 279 284 268 291 294 303 299 301 295 295 296 299 303 310 315 320 328 334 338 343 346 355 358 352 354 353 353 351 347 345 335 311 293 279
343 312 300 292 290 289 283 277 263 256 263 271 290 289 290 300 301 297 294 293 293 294 296 300 306 310 315 323 328 332 338 343 345 352 349 348 349 348 348 343 333 324 312 302
308 308 313 299 293 294 288 279 272 266 268 273 278 287 295 295 302 304 294 293 290 290 292 295 297 298 302 307 313 319 324 329 334 338 341 342 341 336 341 336 328 329 330 321
301 305 322 301 317 313 302 283 263 284 288 276 277 285 300 302 302 301 298 293 291 289 287 287 290 294 294 297 301 307 311 315 320 324 329 332 332 331 329 327 318 311 309 310
290 307 306 305 323 323 304 308 298 290 297 289 293 302 308 310 310 311 309 300 297 294 287 282 284 288 290 293 297 301 304 307 311 314 316 319 321 321 320 317 314 309 309 308
270 286 300 302 300 300 309 303 300 302 310 307 307 314 319 326 328 326 325 320 307 297 292 285 280 282 284 285 288 293 298 301 304 307 309 310 311 311 310 309 306 302 300 297
292 284 290 306 302 297 300 308 311 318 310 312 317 323 326 328 327 322 324 324 325 315 301 293 285 282 281 281 282 286 292 295 297 299 302 303 304 304 303 302 299 297 294 292
302 292 274 279 294 296 292 291 302 310 302 306 311 313 315 317 317 322 324 322 327 324 316 306 295 289 285 279 280 283 286 290 293 295 297 298 298 297 297 295 292 291 289 288
287 289 286 286 288 293 286 300 292 297 301 299 304 307 310 311 314 317 320 322 317 315 316 312 308 302 297 290 284 283 284 287 291 293 294 294 294 293 291 290 288 287 286 286
291 282 292 273 282 291 282 289 293 293 293 293 296 301 303 307 310 312 314 317 316 310 309 307 304 306 306 301 297 296 291 289 290 291 292 292 290 289 287 285 285 284 284 284
285 280 284 297 287 282 283 286 291 290 290 291 294 298 300 302 305 308 312 314 314 309 305 306 302 301 302 302 304 303 302 302 299 294 292 290 288 286 284 282 281 280 281 282
283 291 287 285 288 289 286 285 288 289 288 291 293 295 297 299 302 304 308 311 311 307 303 303 302 300 300 301 302 302 304 308 308 306 300 294 289 285 283 281 279 278 279 280
279 282 280 285 291 288 291 291 289 286 289 290 293 296 297 298 300 302 304 304 305 302 299 302 302 302 302 301 302 303 304 306 307 308 307 303 298 288 283 281 280 279 279 280